Home > Weather > Aylesbury > Past weeks

Flag for United Kingdom Weather for the Past 2 Weeks in Aylesbury, England, United Kingdom

Now
36 °F

Chilly.


Feels Like: 28 °F
Forecast: 33 / 42 °F
Wind: 10 mph from Northeast

Location: High Wicombe Hqstc

Current Time: Feb 14, 2016 at 10:21:05 AM

Latest Report: Feb 14, 2016 at 9:00 AM


Visibility: 8 mi

Pressure: 29.32 "Hg

Humidity: 89%

Dew point: 33 °F

Location of AylesburyLocation

Historic Weather in Aylesbury — Graph

°F

Aylesbury Temperature Yesterday

Maximum temperature yesterday: 37 °F (at 4:00 PM)
Minimum temperature yesterday: 34 °F (at 8:00 AM)
Average temperature yesterday: 36 °F

High & Low Weather Summary for the Past Weeks

 TemperatureHumidityPressure
High54 °F (Feb 1, 3:00 PM)100% (Jan 31, 9:00 AM)30.31 "Hg (Jan 31, 9:00 AM)
Low33 °F (Feb 11, 7:00 AM)55% (Feb 2, 2:00 PM)29.00 "Hg (Feb 8, 6:00 AM)
Average42 °F86%29.61 "Hg
* Reported Jan 30 2:00 PM — Feb 14 9:00 AM, Aylesbury, Weather by CustomWeather, © 2016

Note: Actual official high and low records may vary slightly from our data, if they occured in-between our weather recording intervals... More about our weather records

Advertising

Aylesbury Weather History for the Previous 24 Hours

 ConditionsComfort  
Time TempWeatherWind HumidityBarometerVisibility
9:00 AM
Sun, Feb 14
36 °FChilly.10 mph89%29.32 "Hg8 mi
8:00 AM35 °FChilly.10 mph91%29.29 "Hg7 mi
7:00 AM35 °FSmoke.9 mph92%29.26 "Hg6 mi
6:00 AM35 °FFog.8 mph95%29.23 "Hg5 mi
5:00 AM34 °FFog.9 mph95%29.23 "Hg5 mi
4:00 AM34 °FFog.8 mph95%29.21 "Hg4 mi
3:00 AM35 °FFog.7 mph94%29.21 "Hg4 mi
2:00 AM35 °FFog.8 mph96%29.21 "Hg4 mi
1:00 AM35 °FFog.6 mph97%29.18 "Hg3 mi
12:00 AM35 °FChilly.6 mph97%29.18 "Hg3 mi
8:00 PM
Sat, Feb 13
36 °FLight rain. Overcast.8 mph97%29.15 "Hg2 mi
7:00 PM36 °FLight rain. Overcast.9 mph97%29.15 "Hg2 mi
6:00 PM36 °FRain. Overcast.8 mph96%29.12 "Hg2 mi
5:00 PM37 °FLight rain. Cloudy.8 mph94%29.09 "Hg4 mi
4:00 PM37 °FDrizzle. Cloudy.9 mph95%29.09 "Hg4 mi
3:00 PM37 °FLight rain. Cloudy.8 mph96%29.06 "Hg4 mi
2:00 PM37 °FLight rain. Cloudy.10 mph95%29.06 "Hg5 mi
1:00 PM36 °FLight rain. Cloudy.13 mph97%29.03 "Hg5 mi
12:00 PM37 °FLight rain. Cloudy.15 mph96%29.03 "Hg2 mi
11:00 AM36 °FLight rain. Cloudy.15 mph97%29.06 "Hg3 mi
10:00 AM35 °FLight rain. Cloudy.14 mph96%29.06 "Hg2 mi
Weather by CustomWeather, © 2016

See weather overviewHow to use our weather pages